Weather History for Douglas, WY

Change the Weather History Date:

Monday, April 22, 2013

  Actual Average Record
Temperature  
Mean Temperature 29 °F 45 °F  
Max Temperature 38 °F 60 °F 79 °F (2006)
Min Temperature 19 °F 31 °F 19 °F (2013)
Degree Days  
Heating Degree Days 36 20  
Month to date heating degree days 656 493  
Since 1 July heating degree days 6600 6811  
Cooling Degree Days 0 0  
Month to date cooling degree days 0 0  
Year to date cooling degree days 0 0  
Moisture  
Dew Point 22 °F    
Average Humidity 75    
Maximum Humidity 88    
Minimum Humidity 62    
Precipitation  
Precipitation 0.03 in 0.06 in 0.26 in (2010)
Month to date precipitation 0.47 1.00  
Year to date precipitation 1.44 2.64  
Sea Level Pressure  
Sea Level Pressure 30.19 in    
Wind  
Wind Speed 15 mph (NNE)    
Max Wind Speed 30 mph    
Max Gust Speed 35 mph    
Visibility 5 miles    
Events Snow    
T = Trace of Precipitation, MM = Missing Value Source: NWS Daily Summary

Daily Weather History Graph

Daily Weather History Graph

Search for Another Location

Airport:

Trip Planner

Search our weather history database for the weather conditions in past years. The results will help you decide how hot, cold, wet, or windy it might be!

Date:

Astronomy

Apr. 22, 2013 Rise Set
Actual Time 6:08 AM MDT 7:52 PM MDT
Civil Twilight 5:38 AM MDT 8:22 PM MDT
Nautical Twilight 5:01 AM MDT 8:58 PM MDT
Astronomical Twilight 4:22 AM MDT 9:38 PM MDT
Moon 4:40 PM MDT (4/22) 4:09 AM MDT (4/22)
Length of Visible Light 14h 43m
Length of Day
13h 43m
Waxing Gibbous, 88% of the Moon is Illuminated
Apr 22
Waxing Gibbous
Apr 25
Full
May 2
Last Quarter
May 9
New
May 17
First Quarter

Hourly Weather History & Observations

Time (MDT) Temp. Windchill Dew Point Humidity Pressure Visibility Wind Dir Wind Speed Gust Speed Precip Events Conditions
12:53 AM 37.9 °F 32.7 °F 34.0 °F 86% 29.93 in 10.0 mi SSW 6.9 mph - N/A   Overcast
1:19 AM 37.4 °F - 33.8 °F 87% 29.95 in 10.0 mi Calm Calm - N/A   Overcast
1:33 AM 37.4 °F 29.3 °F 33.8 °F 87% 29.95 in 10.0 mi NW 12.7 mph 19.6 mph N/A   Overcast
1:41 AM 35.6 °F 24.2 °F 32.0 °F 87% 29.96 in 10.0 mi North 21.9 mph 31.1 mph N/A   Overcast
1:44 AM 35.6 °F 24.0 °F 32.0 °F 87% 29.95 in 10.0 mi North 23.0 mph 31.1 mph N/A   Overcast
1:53 AM 32.0 °F 18.6 °F 28.9 °F 88% 29.94 in 10.0 mi North 25.3 mph 32.2 mph N/A   Overcast
2:21 AM 28.4 °F 13.8 °F 24.8 °F 86% 29.96 in 10.0 mi North 25.3 mph 34.5 mph N/A   Overcast
2:24 AM 28.4 °F 15.1 °F 24.8 °F 86% 29.96 in 10.0 mi North 20.7 mph 34.5 mph N/A   Overcast
2:34 AM 28.4 °F 13.8 °F 24.8 °F 86% 29.97 in 10.0 mi North 25.3 mph 34.5 mph N/A   Overcast
2:53 AM 28.9 °F 15.1 °F 25.0 °F 85% 29.98 in 10.0 mi North 23.0 mph 28.8 mph N/A   Overcast
3:53 AM 28.0 °F 14.3 °F 24.1 °F 85% 30.00 in 9.0 mi North 21.9 mph 28.8 mph 0.00 in   Overcast
4:39 AM 28.4 °F 17.5 °F 24.8 °F 86% 30.04 in 10.0 mi NNW 13.8 mph - 0.00 in   Overcast
4:53 AM 28.0 °F 17.0 °F 24.1 °F 85% 30.04 in 7.0 mi NNW 13.8 mph - 0.00 in Snow Light Snow
5:01 AM 28.4 °F 16.2 °F 24.8 °F 86% 30.05 in 2.5 mi NNW 17.3 mph 20.7 mph 0.00 in Snow Light Snow
5:07 AM 28.4 °F 15.8 °F 24.8 °F 86% 30.06 in 1.0 mi NW 18.4 mph - 0.00 in Snow Light Snow
5:15 AM 26.6 °F 13.8 °F 24.8 °F 93% 30.06 in 0.8 mi NNW 17.3 mph - 0.00 in Snow Light Snow
5:19 AM 26.6 °F 13.4 °F 24.8 °F 93% 30.07 in 1.2 mi NW 18.4 mph - 0.00 in Snow Light Snow
5:27 AM 26.6 °F 14.3 °F 23.0 °F 86% 30.07 in 1.5 mi NW 16.1 mph - 0.00 in Snow Light Snow
5:36 AM 26.6 °F 14.7 °F 23.0 °F 86% 30.07 in 2.0 mi NNW 15.0 mph - 0.00 in Snow Light Snow
5:44 AM 26.6 °F 13.1 °F 21.2 °F 80% 30.08 in 1.8 mi NNW 19.6 mph 24.2 mph 0.00 in Snow Light Snow
5:47 AM 26.6 °F 13.8 °F 21.2 °F 80% 30.08 in 2.0 mi NNW 17.3 mph 24.2 mph 0.00 in Snow Light Snow
5:53 AM 26.1 °F 12.7 °F 21.9 °F 84% 30.13 in 2.5 mi NNW 18.4 mph - 0.00 in Snow Light Snow
6:03 AM 24.8 °F 11.5 °F 21.2 °F 86% 30.08 in 1.2 mi North 17.3 mph - 0.00 in Snow Light Snow
6:21 AM 24.8 °F 11.9 °F 21.2 °F 86% 30.09 in 2.5 mi North 16.1 mph 23.0 mph 0.00 in Snow Light Snow
6:28 AM 26.6 °F 14.7 °F 21.2 °F 80% 30.10 in 5.0 mi North 15.0 mph 23.0 mph 0.00 in Snow Light Snow
6:45 AM 26.6 °F 15.2 °F 21.2 °F 80% 30.11 in 10.0 mi North 13.8 mph - 0.00 in   Overcast
6:53 AM 26.1 °F 13.1 °F 21.0 °F 81% 30.15 in 10.0 mi North 17.3 mph 23.0 mph 0.00 in   Overcast
7:14 AM 26.6 °F 14.3 °F 21.2 °F 80% 30.12 in 9.0 mi North 16.1 mph - 0.00 in Snow Light Snow
7:25 AM 26.6 °F 15.2 °F 21.2 °F 80% 30.12 in 1.8 mi North 13.8 mph - 0.00 in Snow Light Snow
7:33 AM 26.6 °F 15.2 °F 21.2 °F 80% 30.12 in 1.0 mi NNE 13.8 mph - 0.00 in Snow Light Snow
7:41 AM 26.6 °F 15.2 °F 21.2 °F 80% 30.13 in 1.0 mi NNE 13.8 mph - 0.00 in Snow Light Snow
7:50 AM 26.6 °F 13.8 °F 21.2 °F 80% 30.13 in 2.0 mi NE 17.3 mph 23.0 mph 0.00 in Snow Light Snow
7:53 AM 25.0 °F 12.6 °F 21.0 °F 85% 30.19 in 2.0 mi NE 15.0 mph 23.0 mph 0.00 in Snow Light Snow
8:02 AM 26.6 °F 15.2 °F 21.2 °F 80% 30.15 in 2.5 mi NE 13.8 mph 21.9 mph 0.00 in Snow Light Snow
8:09 AM 26.6 °F 15.7 °F 21.2 °F 80% 30.14 in 3.0 mi NE 12.7 mph - 0.00 in Snow Light Snow
8:33 AM 24.8 °F 14.6 °F 19.4 °F 80% 30.16 in 4.0 mi NE 10.4 mph - 0.00 in Snow Light Snow
8:44 AM 24.8 °F 14.0 °F 21.2 °F 86% 30.16 in 1.8 mi NNE 11.5 mph - 0.00 in Snow Light Snow
8:53 AM 25.0 °F 14.8 °F 21.0 °F 85% 30.24 in 1.5 mi NNE 10.4 mph - 0.00 in Snow Light Snow
8:59 AM 24.8 °F 13.4 °F 21.2 °F 86% 30.17 in 1.0 mi NNE 12.7 mph - 0.00 in Snow Light Snow
9:01 AM 24.8 °F 14.6 °F 21.2 °F 86% 30.17 in 0.8 mi NNE 10.4 mph - 0.00 in Snow Light Snow
9:16 AM 26.6 °F 16.8 °F 21.2 °F 80% 30.17 in 1.2 mi NE 10.4 mph - 0.00 in Snow Light Snow
9:32 AM 26.6 °F 16.2 °F 21.2 °F 80% 30.18 in 1.5 mi NNE 11.5 mph - 0.00 in Snow Light Snow
9:43 AM 26.6 °F 16.8 °F 21.2 °F 80% 30.18 in 2.5 mi NE 10.4 mph - 0.00 in Snow Light Snow
9:53 AM 26.1 °F 15.0 °F 21.0 °F 81% 30.27 in 4.0 mi NE 12.7 mph - 0.00 in Snow Light Snow
10:13 AM 26.6 °F 17.5 °F 19.4 °F 74% 30.20 in 2.0 mi NE 9.2 mph - 0.00 in Snow Light Snow
10:18 AM 26.6 °F 16.8 °F 21.2 °F 80% 30.20 in 1.0 mi NE 10.4 mph - 0.00 in Snow Light Snow
10:34 AM 26.6 °F 16.8 °F 19.4 °F 74% 30.21 in 1.2 mi ENE 10.4 mph - 0.00 in Snow Light Snow
10:39 AM 26.6 °F 16.2 °F 21.2 °F 80% 30.21 in 0.8 mi NE 11.5 mph - 0.00 in Snow Light Snow
10:51 AM 24.8 °F 11.9 °F 19.4 °F 80% 30.22 in 0.5 mi ENE 16.1 mph - 0.00 in Snow Snow
10:53 AM 25.0 °F 11.7 °F 19.9 °F 81% 30.31 in 0.5 mi ENE 17.3 mph - 0.00 in Snow Snow
11:02 AM 24.8 °F 13.4 °F 19.4 °F 80% 30.22 in 1.2 mi ENE 12.7 mph - 0.00 in Snow Light Snow
11:06 AM 26.6 °F 15.2 °F 19.4 °F 74% 30.23 in 2.0 mi NE 13.8 mph - 0.00 in Snow Light Snow
11:09 AM 26.6 °F 15.2 °F 19.4 °F 74% 30.23 in 3.0 mi NE 13.8 mph - 0.00 in Snow Light Snow
11:22 AM 26.6 °F 15.7 °F 21.2 °F 80% 30.23 in 1.8 mi NE 12.7 mph - 0.01 in Snow Light Snow
11:33 AM 26.6 °F 15.2 °F 21.2 °F 80% 30.23 in 1.0 mi NNE 13.8 mph - 0.01 in Snow Light Snow
11:47 AM 26.6 °F 16.2 °F 21.2 °F 80% 30.23 in 0.8 mi NNE 11.5 mph - 0.02 in Snow Light Snow
11:53 AM 26.1 °F 13.6 °F 21.0 °F 81% 30.31 in 0.5 mi NNE 16.1 mph 23.0 mph 0.02 in Snow Snow
12:04 PM 26.6 °F 14.3 °F 21.2 °F 80% 30.23 in 1.2 mi NNE 16.1 mph 24.2 mph 0.00 in Snow Light Snow
12:09 PM 26.6 °F 13.4 °F 21.2 °F 80% 30.23 in 2.0 mi NNE 18.4 mph 24.2 mph 0.00 in Snow Light Snow
12:26 PM 26.6 °F 13.1 °F 21.2 °F 80% 30.23 in 3.0 mi NE 19.6 mph - 0.00 in Snow Light Snow
12:43 PM 26.6 °F 13.1 °F 21.2 °F 80% 30.23 in 2.5 mi NNE 19.6 mph - 0.00 in Snow Light Snow
12:53 PM 27.0 °F 13.9 °F 21.0 °F 78% 30.30 in 2.0 mi NNE 18.4 mph - 0.00 in Snow Light Snow
12:55 PM 26.6 °F 13.4 °F 21.2 °F 80% 30.23 in 1.8 mi NNE 18.4 mph - 0.00 in Snow Light Snow
1:04 PM 26.6 °F 13.4 °F 23.0 °F 86% 30.23 in 2.0 mi NNE 18.4 mph - 0.00 in Snow Light Snow
1:16 PM 28.4 °F 14.7 °F 23.0 °F 80% 30.23 in 5.0 mi NNE 21.9 mph - 0.01 in Snow Light Snow
1:27 PM 28.4 °F 14.7 °F 23.0 °F 80% 30.23 in 10.0 mi NNE 21.9 mph - 0.01 in   Overcast
1:35 PM 28.4 °F 15.4 °F 23.0 °F 80% 30.23 in 8.0 mi NNE 19.6 mph - 0.01 in   Overcast
1:53 PM 30.0 °F 18.3 °F 24.1 °F 79% 30.32 in 5.0 mi NE 17.3 mph 26.5 mph 0.01 in   Overcast
2:38 PM 28.4 °F 15.8 °F 21.2 °F 74% 30.24 in 2.5 mi NE 18.4 mph 26.5 mph 0.00 in Snow Light Snow
2:50 PM 28.4 °F 15.1 °F 21.2 °F 74% 30.24 in 5.0 mi NNE 20.7 mph 24.2 mph 0.00 in Snow Light Snow
2:53 PM 28.0 °F 14.6 °F 19.9 °F 72% 30.34 in 6.0 mi NNE 20.7 mph 24.2 mph 0.00 in   Haze
3:14 PM 28.4 °F 15.8 °F 21.2 °F 74% 30.24 in 2.0 mi NNE 18.4 mph - 0.00 in Snow Light Snow
3:21 PM 28.4 °F 15.4 °F 21.2 °F 74% 30.24 in 2.5 mi NNE 19.6 mph 24.2 mph 0.00 in Snow Light Snow
3:29 PM 26.6 °F 12.7 °F 21.2 °F 80% 30.24 in 3.0 mi North 20.7 mph 26.5 mph 0.00 in Snow Light Snow
3:53 PM 28.0 °F 15.3 °F 21.0 °F 75% 30.35 in 7.0 mi North 18.4 mph 26.5 mph 0.00 in Snow Light Snow
4:10 PM 28.4 °F 15.1 °F 21.2 °F 74% 30.25 in 8.0 mi North 20.7 mph 25.3 mph 0.00 in   Overcast
4:27 PM 26.6 °F 13.8 °F 19.4 °F 74% 30.26 in 10.0 mi North 17.3 mph 24.2 mph 0.00 in   Overcast
4:53 PM 26.1 °F 14.0 °F 18.0 °F 71% 30.37 in 10.0 mi North 15.0 mph 21.9 mph 0.00 in   Overcast
5:53 PM 26.1 °F 14.5 °F 16.0 °F 66% 30.41 in 10.0 mi North 13.8 mph 20.7 mph N/A   Overcast
6:53 PM 25.0 °F 14.8 °F 16.0 °F 69% 30.42 in 10.0 mi NNE 10.4 mph - N/A   Overcast
7:06 PM 24.8 °F 14.0 °F 15.8 °F 69% 30.30 in 10.0 mi North 11.5 mph - N/A   Overcast
7:53 PM 24.1 °F 12.5 °F 14.0 °F 65% 30.44 in 10.0 mi North 12.7 mph - N/A   Overcast
8:53 PM 23.0 °F 11.7 °F 16.0 °F 74% 30.47 in 6.0 mi NNE 11.5 mph - 0.00 in Snow Light Snow
9:08 PM 21.2 °F 11.7 °F 15.8 °F 80% 30.33 in 3.0 mi North 8.1 mph - 0.00 in Snow Light Snow
9:15 PM 21.2 °F 11.7 °F 15.8 °F 80% 30.34 in 2.5 mi North 8.1 mph - 0.00 in Snow Light Snow
9:23 PM 21.2 °F 14.9 °F 15.8 °F 80% 30.34 in 4.0 mi NNE 4.6 mph - 0.00 in Snow Light Snow
9:53 PM 21.0 °F 13.4 °F 15.1 °F 78% 30.49 in 10.0 mi NNE 5.8 mph - 0.00 in   Mostly Cloudy
10:53 PM 19.9 °F 12.1 °F 12.9 °F 74% 30.48 in 10.0 mi North 5.8 mph - N/A   Clear
11:53 PM 19.9 °F 12.1 °F 14.0 °F 78% 30.46 in 10.0 mi NNW 5.8 mph - N/A   Clear